CW1020 Weather Reports


time (UTC)temp
F
wind
direction
speed
knots
gust
knots
rain 1hr
in
rain 24hr
in
rain mn
in
humidity
%
barometer
mb
20211205100947 32 173 1.7 4.3 0.00 0.00 0.00 78 1025.0
20211205100459 32 172 1.7 2.6 0.00 0.00 0.00 78 1025.0
20211205095958 32 172 0.0 1.7 0.00 0.00 0.00 78 1025.0
20211205095456 32 172 0.9 1.7 0.00 0.00 0.00 78 1025.1
20211205094953 32 172 0.0 2.6 0.00 0.00 0.00 77 1025.1
20211205094445 33 172 0.0 1.7 0.00 0.00 0.00 77 1025.0
20211205094003 33 172 0.0 1.7 0.00 0.00 0.00 75 1025.0
20211205093459 33 172 0.9 2.6 0.00 0.00 0.00 75 1024.9
20211205092958 33 171 1.7 2.6 0.00 0.00 0.00 75 1024.9
20211205092449 33 171 0.9 3.5 0.00 0.00 0.00 76 1024.8
20211205091947 33 171 3.5 3.5 0.00 0.00 0.00 76 1024.9
20211205091506 33 169 1.7 3.5 0.00 0.00 0.00 77 1024.9
20211205090957 33 171 1.7 2.6 0.00 0.00 0.00 78 1024.9
20211205090451 33 171 0.0 0.9 0.00 0.00 0.00 79 1025.0
20211205085950 33 171 0.0 0.9 0.00 0.00 0.00 77 1024.9
20211205085001 33 171 0.0 0.0 0.00 0.00 0.00 77 1025.0
20211205084455 33 171 0.0 0.9 0.00 0.00 0.00 76 1025.0
20211205083951 34 172 0.0 0.0 0.00 0.00 0.00 76 1025.0
20211205083446 34 172 0.0 0.0 0.00 0.00 0.00 76 1025.0
20211205083001 34 172 0.0 0.0 0.00 0.00 0.00 77 1025.1
20211205082450 34 172 0.0 2.6 0.00 0.00 0.00 77 1025.1
20211205082004 34 172 1.7 3.5 0.00 0.00 0.00 77 1025.1
20211205081458 34 172 1.7 3.5 0.00 0.00 0.00 77 1025.1
20211205080953 34 170 0.9 3.5 0.00 0.00 0.00 77 1025.1
20211205080504 34 169 2.6 4.3 0.00 0.00 0.00 77 1025.1
20211205075957 34 167 0.9 2.6 0.00 0.00 0.00 78 1025.3
20211205075502 34 167 0.0 0.0 0.00 0.00 0.00 78 1025.3
20211205075000 34 167 0.0 1.7 0.00 0.00 0.00 79 1025.3
20211205074456 34 167 0.0 1.7 0.00 0.00 0.00 79 1025.2
20211205073952 34 167 0.0 0.9 0.00 0.00 0.00 77 1025.2
20211205073448 35 167 0.0 0.9 0.00 0.00 0.00 74 1025.2
20211205072950 35 167 0.0 1.7 0.00 0.00 0.00 75 1025.3
20211205072503 35 167 0.0 2.6 0.00 0.00 0.00 75 1025.3
20211205072003 35 167 0.9 2.6 0.00 0.00 0.00 75 1025.2
20211205071502 35 167 2.6 4.3 0.00 0.00 0.00 75 1025.2
20211205071000 35 165 3.5 4.3 0.00 0.00 0.00 77 1025.3
20211205070457 35 164 1.7 2.6 0.00 0.00 0.00 76 1025.3
20211205065957 35 164 1.7 2.6 0.00 0.00 0.00 75 1025.2
20211205065453 35 164 1.7 2.6 0.00 0.00 0.00 74 1025.2
20211205064950 36 103 0.0 1.7 0.00 0.00 0.00 73 1025.1
20211205064505 36 103 0.0 2.6 0.00 0.00 0.00 72 1025.1
20211205064001 36 103 0.9 2.6 0.00 0.00 0.00 70 1025.1
20211205063456 36 103 1.7 2.6 0.00 0.00 0.00 72 1025.0
20211205062951 37 180 0.9 2.6 0.00 0.00 0.00 70 1025.0
20211205062500 37 180 0.0 2.6 0.00 0.00 0.00 71 1025.0
20211205061956 37 180 0.9 2.6 0.00 0.00 0.00 72 1025.0
20211205061452 37 180 0.9 3.5 0.00 0.00 0.00 73 1025.1
20211205060948 37 180 2.6 3.5 0.00 0.00 0.00 75 1025.2
20211205060457 37 179 1.7 2.6 0.00 0.00 0.00 74 1025.2
20211205055952 37 179 0.9 3.5 0.00 0.00 0.00 75 1025.3
20211205055447 37 179 1.7 3.5 0.00 0.00 0.00 75 1025.4
20211205055002 37 178 1.7 2.6 0.00 0.00 0.00 75 1025.4
20211205054453 37 178 1.7 1.7 0.00 0.00 0.00 72 1025.4
20211205053946 37 178 0.0 3.5 0.00 0.00 0.00 71 1025.4
20211205053500 38 176 1.7 3.5 0.00 0.00 0.00 73 1025.4
20211205052955 38 178 0.0 1.7 0.00 0.00 0.00 74 1025.4
20211205052502 38 178 0.0 2.6 0.00 0.00 0.00 73 1025.3
20211205051956 38 178 0.9 2.6 0.00 0.00 0.00 72 1025.2
20211205051450 38 170 1.7 2.6 0.00 0.00 0.00 72 1025.1
20211205051005 38 170 0.9 1.7 0.00 0.00 0.00 73 1025.0
20211205050455 39 170 0.0 2.6 0.00 0.00 0.00 77 1025.0
20211205045952 39 170 0.9 2.6 0.00 0.00 0.00 73 1025.0
20211205045505 39 170 0.9 2.6 0.00 0.00 0.00 73 1024.9
20211205045000 39 169 0.0 0.9 0.00 0.00 0.00 75 1024.9
20211205044449 39 169 0.0 0.0 0.00 0.00 0.00 75 1024.8
20211205044005 39 169 0.0 0.0 0.00 0.00 0.00 75 1024.7
20211205043502 39 169 0.0 0.0 0.00 0.00 0.00 74 1024.8
20211205042957 39 169 0.0 0.0 0.00 0.00 0.00 75 1024.8
20211205042448 40 169 0.0 0.0 0.00 0.00 0.00 77 1024.9
20211205041946 40 169 0.0 1.7 0.00 0.00 0.00 74 1025.0
20211205041504 40 169 0.0 2.6 0.00 0.00 0.00 74 1025.0
20211205041002 40 169 1.7 2.6 0.00 0.00 0.00 75 1025.0
20211205040452 40 165 0.9 6.1 0.00 0.00 0.00 76 1025.0
20211205035954 40 165 2.6 6.1 0.00 0.00 0.00 75 1025.0
20211205035449 40 178 3.5 5.2 0.00 0.00 0.00 73 1025.0
20211205035002 40 178 2.6 4.3 0.00 0.00 0.00 75 1025.0
20211205034458 41 119 0.0 0.0 0.00 0.00 0.00 76 1024.8
20211205033954 41 119 0.0 0.0 0.00 0.00 0.00 75 1024.9
20211205033452 41 119 0.0 0.0 0.00 0.00 0.00 74 1024.8
20211205033006 41 119 0.0 0.0 0.00 0.00 0.00 74 1024.7
20211205032459 42 119 0.0 0.0 0.00 0.00 0.00 73 1024.6
20211205031957 42 119 0.0 0.0 0.00 0.00 0.00 74 1024.6
20211205031456 42 119 0.0 0.0 0.00 0.00 0.00 74 1024.5
20211205030952 43 119 0.0 0.0 0.00 0.00 0.00 74 1024.5
20211205030506 43 117 0.0 0.0 0.00 0.00 0.00 74 1024.6
20211205030006 43 117 0.0 0.0 0.00 0.00 0.00 75 1024.7
20211205025503 43 117 0.0 1.7 0.00 0.00 0.00 75 1024.6
20211205025000 43 117 0.0 2.6 0.00 0.00 0.00 74 1024.6
20211205024454 43 113 0.0 3.5 0.00 0.00 0.00 76 1024.6
20211205023948 44 113 1.7 3.5 0.00 0.00 0.00 75 1024.5
20211205023502 44 117 0.0 2.6 0.00 0.00 0.00 71 1024.5
20211205022953 45 117 0.9 2.6 0.00 0.00 0.00 71 1024.5
20211205022503 45 117 0.0 1.7 0.00 0.00 0.00 68 1024.4
20211205021959 46 117 0.9 2.6 0.00 0.00 0.00 70 1024.3
20211205021456 46 117 1.7 3.5 0.00 0.00 0.00 69 1024.2
20211205020952 47 117 1.7 3.5 0.00 0.00 0.00 65 1024.2
20211205020503 47 130 2.6 4.3 0.00 0.00 0.00 56 1024.1
20211205015958 48 184 1.7 4.3 0.00 0.00 0.00 47 1024.1
20211205015451 48 336 0.9 4.3 0.00 0.00 0.00 56 1024.0
20211205014947 49 336 0.9 4.3 0.00 0.00 0.00 55 1023.9
20211205014457 49 335 0.9 2.6 0.00 0.00 0.00 48 1023.8
20211205013951 50 336 0.0 0.0 0.00 0.00 0.00 40 1023.8
20211205013503 50 337 0.0 0.0 0.00 0.00 0.00 39 1023.7
20211205012959 51 336 0.0 1.7 0.00 0.00 0.00 38 1023.5
20211205012448 52 336 0.0 1.7 0.00 0.00 0.00 37 1023.5
20211205012004 52 337 0.0 0.0 0.00 0.00 0.00 37 1023.5
20211205011457 52 337 0.0 1.7 0.00 0.00 0.00 36 1023.4
20211205010953 53 338 0.9 1.7 0.00 0.00 0.00 35 1023.3
20211205010503 53 339 0.0 1.7 0.00 0.00 0.00 35 1023.2
20211205005958 54 339 0.0 2.6 0.00 0.00 0.00 34 1023.2
20211205005448 54 339 0.9 2.6 0.00 0.00 0.00 33 1023.1
20211205004958 54 338 0.0 3.5 0.00 0.00 0.00 33 1023.1
20211205004453 54 338 0.0 4.3 0.00 0.00 0.00 33 1023.0
20211205003948 54 336 1.7 5.2 0.00 0.00 0.00 32 1023.0
20211205003504 55 332 3.5 5.2 0.00 0.00 0.00 32 1022.9
20211205002955 55 309 3.5 5.2 0.00 0.00 0.00 32 1022.9
20211205002447 56 324 1.7 3.5 0.00 0.00 0.00 32 1022.8
20211205001948 56 322 2.6 7.8 0.00 0.00 0.00 32 1022.8
20211205001504 56 317 3.5 7.8 0.00 0.00 0.00 31 1022.7
20211205001000 57 317 5.2 7.8 0.00 0.00 0.00 32 1022.7
20211205000458 57 313 5.2 7.8 0.00 0.00 0.00 32 1022.7
20211204235958 57 301 4.3 8.7 0.00 0.00 0.00 33 1022.7
20211204235456 58 325 4.3 7.8 0.00 0.00 0.00 32 1022.6
20211204234954 58 327 4.3 9.6 0.00 0.00 0.00 33 1022.6
20211204234504 58 319 6.1 9.6 0.00 0.00 0.00 33 1022.6
20211204234001 58 325 5.2 9.6 0.00 0.00 0.00 33 1022.5
20211204233459 58 345 7.0 9.6 0.00 0.00 0.00 34 1022.5
20211204232956 58 325 5.2 10.4 0.00 0.00 0.00 33 1022.4
20211204232448 58 332 7.0 10.4 0.00 0.00 0.00 33 1022.4
20211204231947 58 349 7.0 10.4 0.00 0.00 0.00 34 1022.3
20211204231505 58 321 7.0 10.4 0.00 0.00 0.00 34 1022.4
20211204231003 58 323 7.0 10.4 0.00 0.00 0.00 35 1022.4
20211204230458 58 313 7.0 10.4 0.00 0.00 0.00 35 1022.3
20211204225956 58 334 6.1 11.3 0.00 0.00 0.00 33 1022.4
20211204225450 58 321 7.0 11.3 0.00 0.00 0.00 32 1022.3
20211204225006 58 337 7.8 11.3 0.00 0.00 0.00 31 1022.3
20211204224457 58 306 7.0 11.3 0.00 0.00 0.00 30 1022.3
20211204223950 58 311 6.1 11.3 0.00 0.00 0.00 29 1022.3
20211204223506 58 327 8.7 12.2 0.00 0.00 0.00 28 1022.3
20211204223001 58 321 6.1 15.6 0.00 0.00 0.00 28 1022.3
20211204222451 58 349 10.4 15.6 0.00 0.00 0.00 27 1022.3
20211204222007 58 318 10.4 14.8 0.00 0.00 0.00 28 1022.3
20211204221502 58 325 8.7 13.0 0.00 0.00 0.00 28 1022.2
20211204220958 58 315 8.7 13.9 0.00 0.00 0.00 30 1022.3
20211204220448 58 330 11.3 14.8 0.00 0.00 0.00 29 1022.3
20211204215453 58 329 10.4 15.6 0.00 0.00 0.00 30 1022.3
20211204215003 58 338 10.4 15.6 0.00 0.00 0.00 30 1022.3
20211204214455 58 320 7.8 13.0 0.00 0.00 0.00 32 1022.3
20211204213949 58 331 9.6 14.8 0.00 0.00 0.00 30 1022.3
20211204213505 58 348 8.7 17.4 0.00 0.00 0.00 31 1022.3
20211204212956 59 325 13.9 17.4 0.00 0.00 0.00 29 1022.2
20211204212450 59 338 10.4 17.4 0.00 0.00 0.00 28 1022.2
20211204212005 59 325 12.2 17.4 0.00 0.00 0.00 29 1022.2
20211204211500 59 321 13.0 17.4 0.00 0.00 0.00 29 1022.3
20211204210950 59 321 12.2 17.4 0.00 0.00 0.00 29 1022.2
20211204210505 60 336 13.0 18.2 0.00 0.00 0.00 28 1022.2
20211204205959 60 325 13.0 18.2 0.00 0.00 0.00 28 1022.2
20211204205450 60 324 7.8 14.8 0.00 0.00 0.00 28 1022.3
20211204204953 60 329 10.4 16.5 0.00 0.00 0.00 29 1022.4
20211204204448 60 333 11.3 18.2 0.00 0.00 0.00 27 1022.4
20211204204003 61 329 11.3 16.5 0.00 0.00 0.00 26 1022.3
20211204203502 61 323 12.2 15.6 0.00 0.00 0.00 26 1022.4
20211204202956 61 319 7.8 15.6 0.00 0.00 0.00 26 1022.4
20211204202450 61 324 7.8 14.8 0.00 0.00 0.00 27 1022.5
20211204201948 62 339 9.6 14.8 0.00 0.00 0.00 27 1022.6
20211204201505 62 325 9.6 13.9 0.00 0.00 0.00 26 1022.6
20211204200952 63 323 9.6 13.0 0.00 0.00 0.00 25 1022.6
20211204200506 63 342 8.7 12.2 0.00 0.00 0.00 25 1022.5
20211204200004 63 322 6.1 10.4 0.00 0.00 0.00 25 1022.6
20211204195459 64 340 6.1 9.6 0.00 0.00 0.00 23 1022.7
20211204194952 64 318 6.1 9.6 0.00 0.00 0.00 23 1022.7
20211204194452 65 325 5.2 8.7 0.00 0.00 0.00 23 1022.7
20211204193948 65 346 5.2 7.8 0.00 0.00 0.00 23 1022.8
20211204193507 65 332 2.6 4.3 0.00 0.00 0.00 22 1022.8
20211204193001 65 71 2.6 3.5 0.00 0.00 0.00 22 1022.9
20211204192457 64 99 0.0 1.7 0.00 0.00 0.00 23 1023.0
20211204191954 64 84 0.0 3.5 0.00 0.00 0.00 23 1023.0
20211204191451 64 116 1.7 3.5 0.00 0.00 0.00 23 1023.1
20211204191006 63 107 0.0 2.6 0.00 0.00 0.00 24 1023.2
20211204190504 63 107 0.9 3.5 0.00 0.00 0.00 24 1023.3
20211204185959 62 101 1.7 3.5 0.00 0.00 0.00 25 1023.3
20211204185452 62 130 0.9 2.6 0.00 0.00 0.00 25 1023.4
20211204185004 61 133 0.9 2.6 0.00 0.00 0.00 26 1023.4
20211204184459 61 132 0.9 2.6 0.00 0.00 0.00 26 1023.4
20211204183954 60 133 0.9 3.5 0.00 0.00 0.00 27 1023.5
20211204183449 60 136 0.9 4.3 0.00 0.00 0.00 27 1023.5
20211204182956 59 147 1.7 2.6 0.00 0.00 0.00 28 1023.7
20211204182450 58 154 0.0 0.9 0.00 0.00 0.00 28 1023.7
20211204182004 58 151 0.0 0.0 0.00 0.00 0.00 30 1023.8
20211204181458 57 150 0.0 0.0 0.00 0.00 0.00 29 1023.8
20211204181008 56 139 0.0 0.0 0.00 0.00 0.00 31 1023.9
20211204180501 55 139 0.0 0.0 0.00 0.00 0.00 31 1024.0
20211204175957 54 146 0.0 0.0 0.00 0.00 0.00 33 1024.0
20211204175507 53 143 0.0 0.0 0.00 0.00 0.00 35 1024.0
20211204174958 52 139 0.0 0.0 0.00 0.00 0.00 36 1024.0
20211204174451 51 156 0.0 0.0 0.00 0.00 0.00 37 1024.0
20211204174007 51 156 0.0 0.0 0.00 0.00 0.00 37 1024.0
20211204173502 50 157 0.0 0.0 0.00 0.00 0.00 39 1024.0
20211204172952 49 157 0.0 0.0 0.00 0.00 0.00 42 1024.0
20211204172504 48 157 0.0 0.0 0.00 0.00 0.00 43 1024.0
20211204172000 46 156 0.0 0.0 0.00 0.00 0.00 45 1023.9
20211204171454 45 156 0.0 0.0 0.00 0.00 0.00 46 1023.9
20211204171006 45 155 0.0 0.0 0.00 0.00 0.00 46 1023.8
20211204170500 44 156 0.0 0.0 0.00 0.00 0.00 48 1023.8
20211204165954 42 160 0.0 0.0 0.00 0.00 0.00 51 1023.8
20211204165459 40 162 0.0 0.0 0.00 0.00 0.00 55 1023.7
20211204164955 39 163 0.0 0.9 0.00 0.00 0.00 55 1023.7
20211204164451 39 167 0.0 0.0 0.00 0.00 0.00 56 1023.7
20211204163951 38 360 0.0 0.0 0.00 0.00 0.00 57 1023.6
20211204163451 38 360 0.0 0.9 0.00 0.00 0.00 56 1023.8
20211204163004 37 360 0.0 0.9 0.00 0.00 0.00 59 1023.6
20211204162458 36 167 0.0 0.0 0.00 0.00 0.00 58 1023.6
20211204161952 36 167 0.0 1.7 0.00 0.00 0.00 59 1023.6
20211204161504 35 168 0.0 1.7 0.00 0.00 0.00 61 1023.5
20211204161000 35 178 0.9 1.7 0.00 0.00 0.00 61 1023.5
20211204160455 34 360 0.0 0.9 0.00 0.00 0.00 63 1023.4
20211204155952 34 165 0.0 2.6 0.00 0.00 0.00 63 1023.4
20211204155504 34 165 0.9 2.6 0.00 0.00 0.00 63 1023.3
20211204155000 33 167 1.7 3.5 0.00 0.00 0.00 65 1023.3
20211204154452 32 167 0.0 0.9 0.00 0.00 0.00 65 1023.3
20211204154006 32 167 0.0 1.7 0.00 0.00 0.00 65 1023.3
20211204153500 32 167 2.6 2.6 0.00 0.00 0.00 65 1023.2
20211204153002 32 167 2.6 3.5 0.00 0.00 0.00 65 1023.3
20211204152459 32 166 1.7 2.6 0.00 0.00 0.00 65 1023.3
20211204152000 32 165 0.0 1.7 0.00 0.00 0.00 65 1023.2
20211204151453 32 165 0.9 1.7 0.00 0.00 0.00 64 1023.2
20211204151009 32 165 0.0 1.7 0.00 0.00 0.00 63 1023.2
20211204150504 32 165 0.9 1.7 0.00 0.00 0.00 63 1023.2
20211204150000 32 165 0.0 2.6 0.00 0.00 0.00 62 1023.2
20211204145509 32 165 0.9 4.3 0.00 0.00 0.00 62 1023.2
20211204145002 32 165 2.6 4.3 0.00 0.00 0.00 62 1023.1
20211204144458 33 175 0.9 2.6 0.00 0.00 0.00 63 1023.0
20211204143952 33 176 0.0 0.9 0.00 0.00 0.00 63 1023.0
20211204143504 33 176 0.0 4.3 0.00 0.00 0.00 62 1023.0
20211204143000 33 176 0.9 4.3 0.00 0.00 0.00 62 1022.9
20211204142454 33 186 2.6 4.3 0.00 0.00 0.00 62 1022.9
20211204142005 33 180 1.7 2.6 0.00 0.00 0.00 61 1022.9
20211204141459 33 180 1.7 2.6 0.00 0.00 0.00 61 1022.8
20211204140953 33 180 1.7 2.6 0.00 0.00 0.00 61 1022.8
20211204140509 33 180 0.0 1.7 0.00 0.00 0.00 60 1022.8
20211204135959 33 180 0.9 1.7 0.00 0.00 0.00 61 1022.8
20211204135453 34 180 0.0 0.0 0.00 0.00 0.00 61 1022.7
20211204135008 34 180 0.0 1.7 0.00 0.00 0.00 62 1022.8
20211204134500 34 180 0.0 2.6 0.00 0.00 0.00 62 1022.7
20211204133951 34 180 0.0 4.3 0.00 0.00 0.00 61 1022.7
20211204133506 34 180 1.7 4.3 0.00 0.00 0.00 61 1022.7
20211204132958 34 175 3.5 5.2 0.00 0.00 0.00 61 1022.6
20211204132451 34 172 3.5 5.2 0.00 0.00 0.00 62 1022.6
20211204132003 34 173 0.0 1.7 0.00 0.00 0.00 62 1022.5
20211204131456 34 173 0.0 1.7 0.00 0.00 0.00 62 1022.5
20211204130952 34 173 0.0 2.6 0.00 0.00 0.00 62 1022.4
20211204130507 33 173 1.7 2.6 0.00 0.00 0.00 62 1022.4
20211204125959 33 173 0.0 3.5 0.00 0.00 0.00 61 1022.4
20211204125452 33 173 1.7 3.5 0.00 0.00 0.00 61 1022.4
20211204125009 33 175 1.7 2.6 0.00 0.00 0.00 62 1022.3
20211204124506 33 175 1.7 2.6 0.00 0.00 0.00 62 1022.4
20211204123958 33 175 0.9 1.7 0.00 0.00 0.00 62 1022.4
20211204123453 33 175 0.9 1.7 0.00 0.00 0.00 61 1022.4
20211204123009 33 175 0.9 1.7 0.00 0.00 0.00 61 1022.4
20211204122504 33 175 0.0 1.7 0.00 0.00 0.00 61 1022.3
20211204121954 34 175 0.0 2.6 0.00 0.00 0.00 60 1022.4
20211204121450 34 177 0.0 2.6 0.00 0.00 0.00 60 1022.3
20211204121006 34 177 0.0 1.7 0.00 0.00 0.00 60 1022.3
20211204120502 34 177 0.9 1.7 0.00 0.00 0.00 60 1022.3
20211204120011 34 177 0.0 1.7 0.00 0.00 0.00 60 1022.3
20211204115506 34 177 0.0 0.9 0.00 0.00 0.00 61 1022.4
20211204115004 34 177 0.0 0.9 0.00 0.00 0.00 61 1022.4
20211204114500 34 177 0.0 3.5 0.00 0.00 0.00 61 1022.5
20211204113953 34 177 1.7 3.5 0.00 0.00 0.00 60 1022.5
20211204113509 34 175 1.7 4.3 0.00 0.00 0.00 60 1022.6
20211204112957 34 172 3.5 4.3 0.00 0.00 0.00 60 1022.6
20211204112452 34 158 0.0 4.3 0.00 0.00 0.00 59 1022.6
20211204112005 34 158 2.6 4.3 0.00 0.00 0.00 59 1022.4
20211204111501 34 163 0.0 0.0 0.00 0.00 0.00 60 1022.5
20211204110957 34 164 0.0 0.0 0.00 0.00 0.00 60 1022.6
20211204110452 34 164 0.0 0.0 0.00 0.00 0.00 59 1022.6
20211204110002 35 164 0.0 0.0 0.00 0.00 0.00 59 1022.6
20211204105455 35 164 0.0 0.0 0.00 0.00 0.00 59 1022.5
20211204104951 35 164 0.0 0.0 0.00 0.00 0.00 59 1022.6
20211204104507 35 164 0.0 0.0 0.00 0.00 0.00 59 1022.5
20211204103959 35 164 0.0 0.0 0.00 0.00 0.00 59 1022.5
20211204103454 35 164 0.0 0.0 0.00 0.00 0.00 59 1022.4
20211204103007 35 164 0.0 0.0 0.00 0.00 0.00 59 1022.4
20211204102501 35 164 0.0 0.0 0.00 0.00 0.00 59 1022.4
20211204101950 35 164 0.0 0.0 0.00 0.00 0.00 58 1022.4
20211204101507 35 164 0.0 0.0 0.00 0.00 0.00 58 1022.5